#timestamp,LO_Frequency,Hit,Temp,Hum 
1480266015.0,286046986.3,N,0.0,0.0
1480266015.9,286046986.3,N,0.0,0.0
1480266035.8,286046986.0,N,0.0,0.0
1480266055.6,286046988.2,N,0.0,0.0
1480266075.4,286046987.4,N,0.0,0.0
1480266095.3,286046988.2,N,0.0,0.0
1480266115.1,286046985.7,N,0.0,0.0
1480266135.8,286046987.5,N,0.0,0.0
1480266155.7,286046985.4,N,0.0,0.0
1480266175.5,286046987.5,N,0.0,0.0
1480266195.4,286046989.6,N,0.0,0.0
1480266215.2,286046987.3,N,0.0,0.0
1480266235.0,286046989.8,N,0.0,0.0
1480266235.9,286046989.8,N,0.0,0.0
1480266255.8,286046989.5,N,0.0,0.0
1480266275.6,286046986.9,N,0.0,0.0
1480266295.5,286046989.6,N,0.0,0.0
1480266315.3,286046986.9,N,0.0,0.0
1480266335.1,286046987.7,N,0.0,0.0
1480266355.9,286046989.8,N,0.0,0.0
1480266375.7,286046989.1,N,0.0,0.0
1480266395.5,286046988.9,N,0.0,0.0
1480266415.4,286046989.7,N,0.0,0.0
1480266435.2,286046991.0,N,0.0,0.0
1480266455.1,286046990.6,N,0.0,0.0
1480266456.0,286046990.6,N,0.0,0.0
1480266475.8,286046990.8,N,0.0,0.0
1480266495.6,286046993.1,N,0.0,0.0
1480266515.5,286046992.6,N,0.0,0.0
1480266535.3,286046992.9,N,0.0,0.0
1480266555.1,286046992.3,N,0.0,0.0
1480266575.9,286046993.0,N,0.0,0.0
1480266595.7,286046993.0,N,0.0,0.0
1480266615.6,286046992.3,N,0.0,0.0
1480266635.4,286046991.8,N,0.0,0.0
1480266655.2,286046992.7,N,0.0,0.0
1480266675.1,286046994.5,N,0.0,0.0
1480266676.0,286046994.5,N,0.0,0.0
1480266695.8,286046993.9,N,0.0,0.0
1480266715.7,286046994.3,N,0.0,0.0
1480266735.5,286046994.3,N,0.0,0.0
1480266755.3,286046994.4,N,0.0,0.0
1480266775.2,286046996.4,N,0.0,0.0
1480266795.0,286046993.9,N,0.0,0.0
1480266795.9,286046993.9,N,0.0,0.0
1480266815.8,286046993.5,N,0.0,0.0
1480266835.6,286046995.9,N,0.0,0.0
1480266855.4,286046995.5,N,0.0,0.0
1480266875.3,286046993.3,N,0.0,0.0
1480266895.1,286046993.4,N,0.0,0.0
1480266915.8,286046996.3,N,0.0,0.0
1480266935.7,286046995.9,N,0.0,0.0
1480266955.5,286046995.8,N,0.0,0.0
1480266975.4,286046996.4,N,0.0,0.0
1480266995.2,286046993.8,N,0.0,0.0
1480267015.0,286046996.2,N,0.0,0.0
1480267015.9,286046996.2,N,0.0,0.0
1480267035.8,286046995.6,N,0.0,0.0
1480267055.6,286046997.9,N,0.0,0.0
1480267075.5,286046999.6,N,0.0,0.0
1480267095.3,286046996.6,N,0.0,0.0
1480267115.1,286046998.6,N,0.0,0.0
1480267135.9,286046998.9,N,0.0,0.0
1480267155.7,286046998.5,N,0.0,0.0
1480267175.5,286047000.8,N,0.0,0.0
1480267195.4,286047002.8,N,0.0,0.0
1480267215.2,286047001.9,N,0.0,0.0
1480267235.1,286047004.0,N,0.0,0.0
1480267236.0,286047004.0,N,0.0,0.0
1480267255.8,286047004.0,N,0.0,0.0
1480267275.6,286047001.7,N,0.0,0.0
1480267295.5,286046999.8,N,0.0,0.0
1480267315.3,286047001.9,N,0.0,0.0
1480267335.1,286047004.0,N,0.0,0.0
1480267355.9,286047004.1,N,0.0,0.0
1480267375.7,286047003.9,N,0.0,0.0
1480267395.6,286047001.9,N,0.0,0.0
1480267415.4,286047004.4,N,0.0,0.0
1480267435.2,286047003.9,N,0.0,0.0
1480267455.1,286047001.3,N,0.0,0.0
1480267456.0,286047001.3,N,0.0,0.0
1480267475.8,286047001.9,N,0.0,0.0
1480267495.7,286047001.5,N,0.0,0.0
1480267515.5,286047001.8,N,0.0,0.0
1480267535.3,286047002.5,N,0.0,0.0
1480267555.2,286047002.2,N,0.0,0.0
1480267575.9,286046999.9,N,0.0,0.0
1480267595.7,286047002.1,N,0.0,0.0
1480267615.6,286047002.0,N,0.0,0.0
1480267635.4,286047002.2,N,0.0,0.0
1480267655.3,286047001.8,N,0.0,0.0
1480267675.1,286047003.9,N,0.0,0.0
1480267676.0,286047003.9,N,0.0,0.0
1480267695.8,286047001.3,N,0.0,0.0
1480267715.7,286047004.0,N,0.0,0.0
1480267735.5,286047004.4,N,0.0,0.0
1480267755.3,286047003.9,N,0.0,0.0
1480267775.2,286047004.2,N,0.0,0.0
1480267795.0,286047004.3,N,0.0,0.0
1480267795.9,286047004.3,N,0.0,0.0
1480267815.8,286047003.9,N,0.0,0.0
1480267835.6,286047003.2,N,0.0,0.0
1480267855.4,286047005.2,N,0.0,0.0
1480267875.3,286047005.1,N,0.0,0.0
1480267895.1,286047005.4,N,0.0,0.0
1480267915.9,286047003.3,N,0.0,0.0
1480267935.7,286047003.4,N,0.0,0.0
1480267955.5,286047003.3,N,0.0,0.0
1480267975.4,286047003.1,N,0.0,0.0
1480267995.2,286047003.4,N,0.0,0.0
1480268015.0,286047005.6,N,0.0,0.0
1480268016.0,286047005.6,N,0.0,0.0
1480268035.8,286047005.5,N,0.0,0.0
1480268055.6,286047003.3,N,0.0,0.0
1480268075.5,286047003.0,N,0.0,0.0
1480268095.3,286047005.9,N,0.0,0.0
1480268115.1,286047005.4,N,0.0,0.0
1480268135.9,286047005.5,N,0.0,0.0
1480268155.7,286047004.2,N,0.0,0.0
1480268175.6,286047001.3,N,0.0,0.0
1480268195.4,286047004.2,N,0.0,0.0
1480268215.2,286047004.1,N,0.0,0.0
1480268235.1,286047003.4,N,0.0,0.0
1480268236.0,286047003.4,N,0.0,0.0
1480268255.8,286047005.9,N,0.0,0.0
1480268275.6,286047005.6,N,0.0,0.0
1480268295.5,286047005.3,N,0.0,0.0
1480268315.3,286047005.9,N,0.0,0.0
1480268335.2,286047005.5,N,0.0,0.0
1480268355.9,286047005.4,N,0.0,0.0
1480268375.7,286047004.8,N,0.0,0.0
1480268395.6,286047004.7,N,0.0,0.0
1480268415.4,286047004.5,N,0.0,0.0
1480268435.2,286047004.9,N,0.0,0.0
1480268455.1,286047005.1,N,0.0,0.0
1480268456.0,286047005.1,N,0.0,0.0
1480268475.8,286047003.0,N,0.0,0.0
1480268495.7,286047006.0,N,0.0,0.0
1480268515.5,286047004.8,N,0.0,0.0
1480268535.3,286047004.9,N,0.0,0.0
1480268555.2,286047007.1,N,0.0,0.0
1480268575.0,286047006.5,N,0.0,0.0
1480268575.9,286047006.5,N,0.0,0.0
1480268595.8,286047006.6,N,0.0,0.0
1480268615.6,286047008.8,N,0.0,0.0
1480268635.4,286047006.4,N,0.0,0.0
1480268655.3,286047008.7,N,0.0,0.0
1480268675.1,286047008.7,N,0.0,0.0
1480268695.8,286047008.8,N,0.0,0.0
1480268715.7,286047006.5,N,0.0,0.0
1480268735.5,286047006.1,N,0.0,0.0
1480268755.4,286047006.4,N,0.0,0.0
1480268775.2,286047009.0,N,0.0,0.0
1480268795.0,286047008.0,N,0.0,0.0
1480268795.9,286047008.0,N,0.0,0.0
1480268815.8,286047008.0,N,0.0,0.0
1480268835.6,286047007.7,N,0.0,0.0
1480268855.4,286047010.1,N,0.0,0.0
1480268875.3,286047009.6,N,0.0,0.0
1480268895.1,286047009.4,N,0.0,0.0
1480268915.9,286047009.7,N,0.0,0.0
1480268935.7,286047009.5,N,0.0,0.0
1480268955.5,286047009.7,N,0.0,0.0
1480268975.4,286047009.3,N,0.0,0.0
1480268995.2,286047009.3,N,0.0,0.0
1480269015.0,286047012.1,N,0.0,0.0
1480269015.9,286047012.1,N,0.0,0.0
1480269035.8,286047013.6,N,0.0,0.0
1480269055.6,286047013.0,N,0.0,0.0
1480269075.5,286047015.5,N,0.0,0.0
1480269095.3,286047017.1,N,0.0,0.0
1480269115.1,286047016.0,N,0.0,0.0
1480269135.9,286047018.7,N,0.0,0.0
1480269155.7,286047018.3,N,0.0,0.0
1480269175.6,286047017.4,N,0.0,0.0
1480269195.4,286047020.4,N,0.0,0.0
1480269215.2,286047020.2,N,0.0,0.0
1480269235.1,286047017.3,N,0.0,0.0
1480269236.0,286047017.3,N,0.0,0.0
1480269255.8,286047020.3,N,0.0,0.0
1480269275.6,286047020.0,N,0.0,0.0
1480269295.5,286047019.8,N,0.0,0.0
1480269315.3,286047019.8,N,0.0,0.0
1480269335.2,286047020.1,N,0.0,0.0
1480269355.9,286047017.4,N,0.0,0.0
1480269375.7,286047017.6,N,0.0,0.0
1480269395.6,286047017.3,N,0.0,0.0
1480269415.4,286047019.7,N,0.0,0.0
1480269435.3,286047021.5,N,0.0,0.0
1480269455.1,286047021.3,N,0.0,0.0
1480269456.0,286047021.3,N,0.0,0.0
1480269475.8,286047020.5,N,0.0,0.0
1480269495.7,286047023.3,N,0.0,0.0
1480269515.5,286047022.6,N,0.0,0.0
1480269535.3,286047022.6,N,0.0,0.0
1480269555.2,286047022.2,N,0.0,0.0
1480269575.0,286047022.3,N,0.0,0.0
1480269575.9,286047022.3,N,0.0,0.0
1480269595.8,286047022.7,N,0.0,0.0
